Flag for Switzerland Weather past 2 weeks in Bülach, Zurich, Switzerland

Now
23 °F

Light snow. Low clouds.


Feels Like: 15 °F
Forecast: 15 / 29 °F
Wind: 7 mph from Southwest

Location: Zurich-Kloten

Current Time: Dec 29, 2014 at 4:57:53 PM

Latest Report: Dec 29, 2014 at 4:00 PM


Visibility: 4 mi

Pressure: 30.57 "Hg

Humidity: 83%

Dew point: 18 °F

Location of BülachLocation

Historic Weather in Bülach — Graph

°F

Bülach temperature yesterday

Maximum temperature yesterday: 34 °F (at 12:00 AM)
Minimum temperature yesterday: 19 °F (at 11:00 PM)
Average temperature yesterday: 29 °F

Past Weeks' High & Low Weather Summary

 TemperatureHumidityPressure
High54 °F (Dec 19, 1:00 PM)100% (Dec 29, 5:00 AM)30.70 "Hg (Dec 29, 5:00 AM)
Low2 °F (Dec 29, 7:00 AM)42% (Dec 23, 2:00 PM)29.56 "Hg (Dec 27, 6:00 PM)
Average39 °F83%30.24 "Hg
* Reported Dec 14 3:00 PM — Dec 29 3:00 PM, Bülach, Weather by CustomWeather, © 2014

Note: Actual official high and low records may vary slightly from our data, if they occured in-between our weather recording intervals... More about our weather records

Advertising

Bülach weather history for previous 24 hours

 ConditionsComfort  
Time TempWeatherWind HumidityBarometerVisibility
3:00 PM
Dec 29
22 °FCold.5 mph83%30.58 "HgN/A
2:00 PM21 °FCold.6 mph85%30.58 "HgN/A
1:00 PM21 °FLight snow. Low clouds.3 mph80%30.59 "Hg3 mi
12:00 PM20 °FCold.7 mph84%30.61 "HgN/A
11:00 AM18 °FCold.3 mph84%30.63 "HgN/A
10:00 AM13 °FFog.7 mph86%30.65 "Hg4 mi
9:00 AM4 °FFrigid.2 mph100%30.70 "HgN/A
8:00 AM3 °FFrigid.5 mph100%30.69 "HgN/A
7:00 AM2 °FFog.1 mph100%30.69 "Hg4 mi
6:00 AM7 °FFrigid.1 mph100%30.66 "HgN/A
5:00 AM6 °FFrigid.2 mph100%30.66 "HgN/A
4:00 AM11 °FFog.3 mph97%30.63 "Hg6 mi
3:00 AM10 °FCold.6 mph89%30.62 "HgN/A
2:00 AM14 °FCold.6 mph77%30.58 "HgN/A
1:00 AM15 °FPassing clouds.6 mph79%30.56 "Hg9 mi
12:00 AM17 °FCold.10 mph75%30.54 "HgN/A
11:00 PM
Dec 28
19 °FCold.12 mph68%30.50 "HgN/A
9:00 PM23 °FCold.15 mph70%30.42 "HgN/A
8:00 PM25 °FChilly.15 mph76%30.37 "HgN/A
7:00 PM26 °FSnow flurries. Overcast.14 mph78%30.31 "Hg4 mi
6:00 PM27 °FChilly.10 mph82%30.26 "HgN/A
5:00 PM27 °FChilly.7 mph89%30.22 "HgN/A
4:00 PM27 °FSnow. Ice fog.9 mph86%30.16 "Hg1 mi
Weather by CustomWeather, © 2014

See weather overviewHow to use our weather pages